Short Creek, WV

12:48 PM EST on February 23, 2017 (GMT -0500)
Wheeling-Ohio County

Weather History for KHLG - April, 2013

Change the Weather History Date:

Thursday, April 18, 2013

  Actual Average Record
Temperature  
Mean Temperature 72 °F 52 °F  
Max Temperature 85 °F 62 °F 85 °F (2013)
Min Temperature 59 °F 42 °F 27 °F (1953)
Degree Days  
Heating Degree Days 0 13  
Month to date heating degree days 228 286  
Since 1 July heating degree days 5126 5226  
Cooling Degree Days 7    
Month to date cooling degree days 20  
Year to date cooling degree days 20  
Growing Degree Days 20 (Base 50)    
Moisture  
Dew Point 54 °F    
Average Humidity 59    
Maximum Humidity 84    
Minimum Humidity 34    
Precipitation  
Precipitation 0.00 in 0.09 in 0.54 in (1989)
Month to date precipitation 1.16 1.81  
Sea Level Pressure  
Sea Level Pressure 29.91 in    
Wind  
Wind Speed 14 mph (South)    
Max Wind Speed 26 mph    
Max Gust Speed 33 mph    
Visibility 10 miles    
Events      
T = Trace of Precipitation, MM = Missing Value Source: NWS Daily Summary

Daily Weather History Graph

Daily Weather History Graph

Search for Another Location

Airport or City:

Trip Planner

Search our weather history database for the weather conditions in past years. The results will help you decide how hot, cold, wet, or windy it might be!

Date:

Astronomy

Apr. 18, 2013 Rise Set
Actual Time 6:39 AM EDT 8:04 PM EDT
Civil Twilight 6:11 AM EDT 8:33 PM EDT
Nautical Twilight 5:37 AM EDT 9:07 PM EDT
Astronomical Twilight 5:01 AM EDT 9:43 PM EDT
Moon 12:49 PM EDT (4/18) 2:18 AM EDT (4/18)
Length of Visible Light 14h 21m
Length of Day
13h 24m
First Quarter, 51% of the Moon is Illuminated
Apr 18
First Quarter
Apr 25
Full
May 2
Last Quarter
May 9
New
May 18
First Quarter

Hourly Weather History & Observations

Time (EDT) Temp. Heat Index Dew Point Humidity Pressure Visibility Wind Dir Wind Speed Gust Speed Precip Events Conditions
12:53 AM 59.0 °F - 54.0 °F 83% 30.09 in 10.0 mi ESE 6.9 mph - N/A   Clear
1:53 AM 60.1 °F - 55.0 °F 83% 30.07 in 10.0 mi ESE 8.1 mph - N/A   Clear
2:53 AM 60.1 °F - 55.0 °F 83% 30.03 in 10.0 mi SE 10.4 mph - N/A   Clear
3:53 AM 62.1 °F - 55.9 °F 80% 30.00 in 10.0 mi SE 10.4 mph - N/A   Clear
4:53 AM 63.0 °F - 55.9 °F 78% 29.97 in 10.0 mi SE 11.5 mph - N/A   Clear
5:53 AM 63.0 °F - 55.9 °F 78% 29.99 in 10.0 mi SSE 10.4 mph - N/A   Clear
6:53 AM 62.1 °F - 55.9 °F 80% 30.01 in 10.0 mi SSE 6.9 mph - N/A   Clear
7:53 AM 64.0 °F - 55.9 °F 75% 30.01 in 10.0 mi SSE 11.5 mph - N/A   Clear
8:53 AM 68.0 °F - 57.0 °F 68% 29.99 in 10.0 mi South 12.7 mph - N/A   Clear
9:53 AM 73.0 °F - 57.0 °F 57% 29.99 in 10.0 mi SSW 15.0 mph 23.0 mph N/A   Mostly Cloudy
10:53 AM 73.0 °F - 55.9 °F 55% 29.98 in 10.0 mi SSW 11.5 mph - N/A   Mostly Cloudy
11:53 AM 75.9 °F - 55.9 °F 50% 29.95 in 10.0 mi SW 21.9 mph 29.9 mph N/A   Partly Cloudy
12:53 PM 79.0 °F - 57.9 °F 48% 29.91 in 10.0 mi SSW 20.7 mph 27.6 mph N/A   Partly Cloudy
1:53 PM 81.0 °F 81.0 °F 57.0 °F 44% 29.87 in 10.0 mi SSW 17.3 mph 25.3 mph N/A   Clear
2:53 PM 82.9 °F 82.1 °F 55.9 °F 39% 29.85 in 10.0 mi SSW 11.5 mph 27.6 mph N/A   Scattered Clouds
3:53 PM 82.0 °F 81.2 °F 53.1 °F 37% 29.83 in 10.0 mi SSW 11.5 mph 20.7 mph N/A   Overcast
4:53 PM 82.9 °F 81.9 °F 54.0 °F 37% 29.80 in 10.0 mi SSW 11.5 mph 23.0 mph N/A   Mostly Cloudy
5:53 PM 82.0 °F - 52.0 °F 35% 29.79 in 10.0 mi SSW 13.8 mph 28.8 mph N/A   Mostly Cloudy
6:53 PM 81.0 °F 80.5 °F 54.0 °F 39% 29.77 in 10.0 mi South 12.7 mph 27.6 mph N/A   Scattered Clouds
7:53 PM 79.0 °F - 53.1 °F 40% 29.77 in 10.0 mi South 25.3 mph 32.2 mph N/A   Partly Cloudy
8:53 PM 75.9 °F - 52.0 °F 43% 29.78 in 10.0 mi South 18.4 mph 25.3 mph N/A   Clear
9:53 PM 73.9 °F - 51.1 °F 45% 29.78 in 10.0 mi South 17.3 mph 25.3 mph N/A   Clear
10:53 PM 73.0 °F - 48.9 °F 42% 29.77 in 10.0 mi South 19.6 mph 32.2 mph N/A   Clear
11:53 PM 72.0 °F - 48.9 °F 44% 29.75 in 10.0 mi South 21.9 mph 28.8 mph N/A   Clear